JAL81 RJTT-ZSSS

Flight info

Callsign JAL81
Flight time N/A
Altitude 40000
Route NINOX Y28 ISAKY Y592 ONIKU A593 LAMEN/K0876F280 A593 AKARA/K0872S0840 A593 PUD
Aircraft B788/H-SADE1E2E3FGHIJ1J3J4J5J6LM1M2OP1P2RVWXYZ/LB1D1

Departure

Time N/A
Airport Tokyo Haneda International Airport (RJTT)

Arrival

Time 2026-05-01 07:57
Airport Shanghai Hongqiao International Airport (ZSSS)
Time Latitude Longitude Altitude Speed Heading
2026-05-01 07:23 31.71955 124.49294 40052 ft 428 kts 262°
2026-05-01 07:24 31.69720 124.39156 40057 ft 428 kts 262°
2026-05-01 07:24 31.68217 124.32365 40055 ft 429 kts 262°
2026-05-01 07:25 31.66716 124.25602 40058 ft 428 kts 262°
2026-05-01 07:25 31.65207 124.18815 40057 ft 430 kts 262°
2026-05-01 07:26 31.63695 124.12042 40055 ft 428 kts 262°
2026-05-01 07:26 31.62939 124.08652 39951 ft 430 kts 262°
2026-05-01 07:26 31.62178 124.05246 39704 ft 431 kts 262°
2026-05-01 07:26 31.61416 124.01858 39455 ft 428 kts 262°
2026-05-01 07:27 31.60666 123.98512 39242 ft 430 kts 262°
2026-05-01 07:27 31.59925 123.95108 39002 ft 430 kts 262°
2026-05-01 07:27 31.59195 123.91710 38770 ft 430 kts 262°
2026-05-01 07:27 31.58453 123.88308 38510 ft 431 kts 262°
2026-05-01 07:28 31.57701 123.84901 38242 ft 431 kts 262°
2026-05-01 07:28 31.56952 123.81492 37978 ft 432 kts 262°
2026-05-01 07:28 31.56212 123.78112 37715 ft 433 kts 262°
2026-05-01 07:28 31.55462 123.74692 37459 ft 434 kts 261°
2026-05-01 07:29 31.54704 123.71256 37200 ft 435 kts 261°
2026-05-01 07:29 31.53946 123.67823 36944 ft 435 kts 261°
2026-05-01 07:29 31.53185 123.64373 36695 ft 437 kts 261°
2026-05-01 07:29 31.52423 123.60925 36448 ft 437 kts 261°
2026-05-01 07:30 31.51658 123.57471 36197 ft 439 kts 261°
2026-05-01 07:30 31.50133 123.50606 36173 ft 434 kts 261°
2026-05-01 07:31 31.48819 123.43726 36173 ft 435 kts 262°
2026-05-01 07:32 31.45511 123.26357 36160 ft 437 kts 262°
2026-05-01 07:33 31.43529 123.15996 36165 ft 437 kts 262°
2026-05-01 07:33 31.41527 123.05584 35970 ft 437 kts 262°
2026-05-01 07:34 31.40858 123.02110 35522 ft 438 kts 262°
2026-05-01 07:34 31.39512 122.95146 34514 ft 438 kts 262°
2026-05-01 07:34 31.38836 122.91655 33981 ft 441 kts 261°
2026-05-01 07:35 31.38157 122.88148 33356 ft 443 kts 261°
2026-05-01 07:35 31.37468 122.84601 32782 ft 447 kts 261°
2026-05-01 07:35 31.36775 122.81046 32210 ft 447 kts 261°
2026-05-01 07:35 31.36089 122.77528 31668 ft 450 kts 260°
2026-05-01 07:36 31.35398 122.73941 31127 ft 452 kts 260°
2026-05-01 07:36 31.34726 122.70368 30589 ft 449 kts 260°
2026-05-01 07:36 31.34053 122.66809 30034 ft 447 kts 260°
2026-05-01 07:36 31.33373 122.63270 29439 ft 443 kts 260°
2026-05-01 07:37 31.32040 122.56321 28248 ft 433 kts 260°
2026-05-01 07:37 31.31384 122.52890 27664 ft 429 kts 260°
2026-05-01 07:37 31.30734 122.49508 27090 ft 424 kts 260°
2026-05-01 07:38 31.30089 122.46167 26530 ft 419 kts 259°
2026-05-01 07:38 31.29461 122.42906 25990 ft 414 kts 260°
2026-05-01 07:38 31.28245 122.36391 24907 ft 406 kts 260°
2026-05-01 07:39 31.27643 122.33187 24390 ft 403 kts 259°
2026-05-01 07:39 31.27037 122.29999 23870 ft 399 kts 259°
2026-05-01 07:39 31.25850 122.23722 22735 ft 393 kts 259°
2026-05-01 07:40 31.25262 122.20612 22145 ft 391 kts 259°
2026-05-01 07:40 31.24674 122.17520 21619 ft 389 kts 259°
2026-05-01 07:40 31.24087 122.14433 21127 ft 388 kts 259°
2026-05-01 07:40 31.23502 122.11359 20689 ft 387 kts 259°
2026-05-01 07:41 31.22918 122.08291 20262 ft 386 kts 259°
2026-05-01 07:41 31.22338 122.05254 19829 ft 378 kts 259°
2026-05-01 07:41 31.21218 121.99398 18996 ft 365 kts 259°
2026-05-01 07:42 31.20669 121.96534 18588 ft 359 kts 259°
2026-05-01 07:42 31.20127 121.93708 18192 ft 352 kts 259°
2026-05-01 07:42 31.19596 121.90942 17757 ft 346 kts 259°
2026-05-01 07:42 31.19072 121.88218 17331 ft 341 kts 259°
2026-05-01 07:43 31.18556 121.85535 16897 ft 338 kts 259°
2026-05-01 07:43 31.18038 121.82849 16519 ft 337 kts 259°
2026-05-01 07:43 31.17066 121.77483 15987 ft 341 kts 264°
2026-05-01 07:44 31.16494 121.72050 14873 ft 339 kts 263°
2026-05-01 07:44 31.15894 121.66589 13760 ft 338 kts 264°
2026-05-01 07:45 31.15601 121.63870 13140 ft 336 kts 264°
2026-05-01 07:45 31.15311 121.61204 12525 ft 326 kts 264°
2026-05-01 07:45 31.15027 121.58612 11926 ft 317 kts 264°
2026-05-01 07:45 31.14751 121.56089 11336 ft 310 kts 264°
2026-05-01 07:46 31.14481 121.53621 10749 ft 303 kts 264°
2026-05-01 07:46 31.14219 121.51227 10183 ft 298 kts 263°
2026-05-01 07:46 31.13702 121.46534 9110 ft 285 kts 263°
2026-05-01 07:47 31.13451 121.44253 8572 ft 280 kts 263°
2026-05-01 07:47 31.13202 121.42007 8046 ft 279 kts 263°
2026-05-01 07:47 31.12953 121.39744 7531 ft 281 kts 263°
2026-05-01 07:47 31.12703 121.37490 7025 ft 277 kts 263°
2026-05-01 07:48 31.13078 121.33219 6057 ft 263 kts 301°
2026-05-01 07:48 31.14122 121.31606 5742 ft 253 kts 309°
2026-05-01 07:48 31.15231 121.30029 5454 ft 249 kts 309°
2026-05-01 07:49 31.16323 121.28488 5189 ft 244 kts 309°
2026-05-01 07:49 31.18412 121.25510 4897 ft 229 kts 309°
2026-05-01 07:49 31.19424 121.24066 4896 ft 230 kts 309°
2026-05-01 07:50 31.20645 121.22889 4731 ft 232 kts 337°
2026-05-01 07:50 31.23809 121.22510 4223 ft 228 kts 358°
2026-05-01 07:50 31.25418 121.22435 3956 ft 233 kts 357°
2026-05-01 07:51 31.27038 121.22358 3644 ft 231 kts 358°
2026-05-01 07:51 31.28618 121.22283 3385 ft 228 kts 357°
2026-05-01 07:51 31.30182 121.22210 3203 ft 222 kts 358°
2026-05-01 07:52 31.33202 121.22084 2854 ft 212 kts 357°
2026-05-01 07:52 31.34641 121.22276 2561 ft 209 kts 27°
2026-05-01 07:52 31.35564 121.23504 2337 ft 204 kts 72°
2026-05-01 07:53 31.34800 121.26462 1994 ft 188 kts 124°
2026-05-01 07:53 31.34121 121.27724 1983 ft 178 kts 123°
2026-05-01 07:53 31.33463 121.28942 1981 ft 177 kts 124°
2026-05-01 07:53 31.32813 121.30146 1981 ft 174 kts 124°
2026-05-01 07:54 31.31517 121.32437 1957 ft 167 kts 136°
2026-05-01 07:55 31.28319 121.33135 1393 ft 145 kts 179°
2026-05-01 07:55 31.26404 121.33272 1033 ft 139 kts 178°
2026-05-01 07:56 31.23531 121.33421 465 ft 138 kts 177°
2026-05-01 07:56 31.21628 121.33534 124 ft 134 kts 179°
2026-05-01 07:57 31.20700 121.33583 28 ft 123 kts 180°
2026-05-01 07:57 31.19833 121.33627 27 ft 42 kts 178°
2026-05-01 07:58 31.19357 121.33673 27 ft 26 kts 161°
2026-05-01 07:58 31.19111 121.33829 27 ft 14 kts 140°
2026-05-01 07:59 31.19147 121.33917 28 ft 8 kts 356°
2026-05-01 07:59 31.19381 121.33903 28 ft 19 kts 357°
2026-05-01 08:00 31.19797 121.33881 28 ft 14 kts 357°
2026-05-01 08:01 31.19906 121.34070 28 ft 12 kts 86°
2026-05-01 08:01 31.19910 121.34186 29 ft 11 kts 86°
2026-05-01 08:01 31.19912 121.34238 29 ft 7 kts 96°
2026-05-01 08:02 31.19859 121.34266 27 ft 5 kts 177°
2026-05-01 08:02 31.19838 121.34267 28 ft 1 kts 177°
2026-05-01 08:03 31.19835 121.34267 28 ft 0 kts 177°